Time,TemperatureF,DewpointF,PressureIn,WindDirection,WindDirectionDegrees,WindSpeedMPH,WindSpeedGustMPH,Humidity,HourlyPrecipIn,Conditions,Clouds,dailyrainin,SoftwareType,DateUTC
2013-03-04 00:00:00,26.6,18.1,30.11,WNW,289,0.0,1.0,70,0.00,,,0.00,Wunderground v.1.15,2013-03-04 05:00:00,
2013-03-04 00:05:00,27.0,18.5,30.11,WNW,283,1.0,2.0,70,0.00,,,0.00,Wunderground v.1.15,2013-03-04 05:05:00,
2013-03-04 00:10:00,27.1,17.9,30.11,WNW,285,0.0,2.0,68,0.00,,,0.00,Wunderground v.1.15,2013-03-04 05:10:00,
2013-03-04 00:20:00,27.5,18.0,30.11,WNW,287,1.0,1.0,67,0.00,,,0.00,Wunderground v.1.15,2013-03-04 05:20:00,
2013-03-04 00:25:00,27.6,18.1,30.11,WNW,288,1.0,1.0,67,0.00,,,0.00,Wunderground v.1.15,2013-03-04 05:25:00,
2013-03-04 00:35:00,27.7,17.8,30.11,West,281,1.0,1.0,66,0.00,,,0.00,Wunderground v.1.15,2013-03-04 05:35:00,
2013-03-04 00:40:00,27.5,18.3,30.11,West,281,0.0,0.0,68,0.00,,,0.00,Wunderground v.1.15,2013-03-04 05:40:00,
2013-03-04 00:50:00,26.6,18.1,30.11,WNW,291,0.0,0.0,70,0.00,,,0.00,Wunderground v.1.15,2013-03-04 05:50:00,
2013-03-04 01:00:00,27.1,18.3,30.12,West,277,1.0,1.0,69,0.00,,,0.00,Wunderground v.1.15,2013-03-04 06:00:00,
2013-03-04 01:05:00,27.2,17.7,30.12,West,270,1.0,3.0,67,0.00,,,0.00,Wunderground v.1.15,2013-03-04 06:05:00,
2013-03-04 01:10:00,27.1,17.6,30.12,WNW,283,0.0,3.0,67,0.00,,,0.00,Wunderground v.1.15,2013-03-04 06:10:00,
2013-03-04 01:15:00,26.9,17.4,30.12,WNW,283,0.0,3.0,67,0.00,,,0.00,Wunderground v.1.15,2013-03-04 06:15:00,
2013-03-04 01:25:00,26.1,17.3,30.12,WNW,283,0.0,0.0,69,0.00,,,0.00,Wunderground v.1.15,2013-03-04 06:25:00,
2013-03-04 01:35:00,25.5,17.4,30.12,WNW,283,0.0,0.0,71,0.00,,,0.00,Wunderground v.1.15,2013-03-04 06:35:00,
2013-03-04 01:40:00,25.2,17.4,30.12,WNW,283,0.0,0.0,72,0.00,,,0.00,Wunderground v.1.15,2013-03-04 06:40:00,
2013-03-04 01:50:00,25.0,17.2,30.13,NW,304,0.0,0.0,72,0.00,,,0.00,Wunderground v.1.15,2013-03-04 06:50:00,
2013-03-04 01:55:00,24.6,16.9,30.13,NW,304,0.0,0.0,72,0.00,,,0.00,Wunderground v.1.15,2013-03-04 06:55:00,
2013-03-04 02:05:00,24.2,16.8,30.13,WNW,303,0.0,3.0,73,0.00,,,0.00,Wunderground v.1.15,2013-03-04 07:05:00,
2013-03-04 02:10:00,24.2,17.1,30.13,NW,311,0.0,3.0,74,0.00,,,0.00,Wunderground v.1.15,2013-03-04 07:10:00,
2013-03-04 02:15:00,24.0,17.2,30.13,NW,311,0.0,3.0,75,0.00,,,0.00,Wunderground v.1.15,2013-03-04 07:15:00,
2013-03-04 02:25:00,23.4,17.3,30.13,NW,311,0.0,1.0,77,0.00,,,0.00,Wunderground v.1.15,2013-03-04 07:25:00,
2013-03-04 02:35:00,23.4,17.3,30.13,NW,311,0.0,0.0,77,0.00,,,0.00,Wunderground v.1.15,2013-03-04 07:35:00,
2013-03-04 02:40:00,23.1,17.3,30.13,NW,311,0.0,0.0,78,0.00,,,0.00,Wunderground v.1.15,2013-03-04 07:40:00,
2013-03-04 02:50:00,22.7,16.9,30.14,NW,311,0.0,0.0,78,0.00,,,0.00,Wunderground v.1.15,2013-03-04 07:50:00,
2013-03-04 03:00:00,22.3,16.8,30.14,NW,311,0.0,0.0,79,0.00,,,0.00,Wunderground v.1.15,2013-03-04 08:00:00,
2013-03-04 03:05:00,22.2,16.7,30.14,NW,311,0.0,1.0,79,0.00,,,0.00,Wunderground v.1.15,2013-03-04 08:05:00,
2013-03-04 03:15:00,22.2,17.0,30.14,NW,311,0.0,1.0,80,0.00,,,0.00,Wunderground v.1.15,2013-03-04 08:15:00,
2013-03-04 03:20:00,22.1,17.2,30.14,NW,311,0.0,0.0,81,0.00,,,0.00,Wunderground v.1.15,2013-03-04 08:20:00,
2013-03-04 03:30:00,21.9,16.7,30.14,NW,311,0.0,0.0,80,0.00,,,0.00,Wunderground v.1.15,2013-03-04 08:30:00,
2013-03-04 03:40:00,21.6,16.7,30.15,NW,311,0.0,0.0,81,0.00,,,0.00,Wunderground v.1.15,2013-03-04 08:40:00,
2013-03-04 03:50:00,21.6,16.4,30.15,NW,311,0.0,0.0,80,0.00,,,0.00,Wunderground v.1.15,2013-03-04 08:50:00,
2013-03-04 04:00:00,21.6,16.4,30.15,NW,311,0.0,0.0,80,0.00,,,0.00,Wunderground v.1.15,2013-03-04 09:00:00,
2013-03-04 04:05:00,21.4,16.5,30.15,NW,311,0.0,0.0,81,0.00,,,0.00,Wunderground v.1.15,2013-03-04 09:05:00,
2013-03-04 04:10:00,21.4,16.5,30.16,NW,311,0.0,0.0,81,0.00,,,0.00,Wunderground v.1.15,2013-03-04 09:10:00,
2013-03-04 04:20:00,21.1,16.5,30.16,NW,311,0.0,0.0,82,0.00,,,0.00,Wunderground v.1.15,2013-03-04 09:20:00,
2013-03-04 04:30:00,20.7,16.4,30.16,NW,311,0.0,0.0,83,0.00,,,0.00,Wunderground v.1.15,2013-03-04 09:30:00,
2013-03-04 04:40:00,20.5,16.2,30.16,NW,311,0.0,0.0,83,0.00,,,0.00,Wunderground v.1.15,2013-03-04 09:40:00,
2013-03-04 04:50:00,20.5,16.2,30.17,NW,311,0.0,0.0,83,0.00,,,0.00,Wunderground v.1.15,2013-03-04 09:50:00,
2013-03-04 05:00:00,20.3,16.0,30.17,NW,311,0.0,0.0,83,0.00,,,0.00,Wunderground v.1.15,2013-03-04 10:00:00,
2013-03-04 05:10:00,20.0,15.9,30.17,NW,311,0.0,1.0,84,0.00,,,0.00,Wunderground v.1.15,2013-03-04 10:10:00,
2013-03-04 05:20:00,19.8,15.7,30.18,NW,311,0.0,0.0,84,0.00,,,0.00,Wunderground v.1.15,2013-03-04 10:20:00,
2013-03-04 05:30:00,19.8,16.0,30.19,NW,311,0.0,0.0,85,0.00,,,0.00,Wunderground v.1.15,2013-03-04 10:30:00,
2013-03-04 05:35:00,19.8,16.0,30.19,NW,311,0.0,0.0,85,0.00,,,0.00,Wunderground v.1.15,2013-03-04 10:35:00,
2013-03-04 05:45:00,19.9,15.8,30.20,NW,311,0.0,0.0,84,0.00,,,0.00,Wunderground v.1.15,2013-03-04 10:45:00,
2013-03-04 05:55:00,19.6,16.1,30.20,NW,304,0.0,0.0,86,0.00,,,0.00,Wunderground v.1.15,2013-03-04 10:55:00,
2013-03-04 06:05:00,19.3,15.8,30.20,NW,305,0.0,1.0,86,0.00,,,0.00,Wunderground v.1.15,2013-03-04 11:05:00,
2013-03-04 06:15:00,19.2,15.7,30.20,NW,305,0.0,1.0,86,0.00,,,0.00,Wunderground v.1.15,2013-03-04 11:15:00,
2013-03-04 06:20:00,18.9,15.7,30.20,NW,305,0.0,0.0,87,0.00,,,0.00,Wunderground v.1.15,2013-03-04 11:20:00,
2013-03-04 06:30:00,18.8,15.3,30.20,NW,305,0.0,0.0,86,0.00,,,0.00,Wunderground v.1.15,2013-03-04 11:30:00,
2013-03-04 06:40:00,18.7,15.5,30.20,NW,304,0.0,0.0,87,0.00,,,0.00,Wunderground v.1.15,2013-03-04 11:40:00,
2013-03-04 06:45:00,18.5,15.3,30.20,NW,305,0.0,0.0,87,0.00,,,0.00,Wunderground v.1.15,2013-03-04 11:45:00,
2013-03-04 06:50:00,18.4,15.2,30.21,NW,305,0.0,0.0,87,0.00,,,0.00,Wunderground v.1.15,2013-03-04 11:50:00,
2013-03-04 06:55:00,18.2,15.2,30.21,NW,304,0.0,0.0,88,0.00,,,0.00,Wunderground v.1.15,2013-03-04 11:55:00,
2013-03-04 07:00:00,18.3,15.6,30.22,NW,304,0.0,0.0,89,0.00,,,0.00,Wunderground v.1.15,2013-03-04 12:00:00,
2013-03-04 07:05:00,18.5,15.8,30.22,NW,305,0.0,1.0,89,0.00,,,0.00,Wunderground v.1.15,2013-03-04 12:05:00,
2013-03-04 07:15:00,19.2,16.5,30.22,NW,305,0.0,1.0,89,0.00,,,0.00,Wunderground v.1.15,2013-03-04 12:15:00,
2013-03-04 07:20:00,19.4,16.4,30.23,NW,305,0.0,0.0,88,0.00,,,0.00,Wunderground v.1.15,2013-03-04 12:20:00,
2013-03-04 07:30:00,20.5,17.5,30.23,ESE,109,0.0,0.0,88,0.00,,,0.00,Wunderground v.1.15,2013-03-04 12:30:00,
2013-03-04 07:35:00,21.2,17.7,30.23,WNW,288,0.0,3.0,86,0.00,,,0.00,Wunderground v.1.15,2013-03-04 12:35:00,
2013-03-04 07:40:00,23.9,18.6,30.23,WNW,293,2.0,5.0,80,0.00,,,0.00,Wunderground v.1.15,2013-03-04 12:40:00,
2013-03-04 07:45:00,25.8,18.7,30.24,WNW,290,4.0,5.0,74,0.00,,,0.00,Wunderground v.1.15,2013-03-04 12:45:00,
2013-03-04 07:55:00,27.5,18.7,30.24,NNW,331,2.0,3.0,69,0.00,,,0.00,Wunderground v.1.15,2013-03-04 12:55:00,
2013-03-04 08:05:00,28.9,18.6,30.24,WNW,295,3.0,5.0,65,0.00,,,0.00,Wunderground v.1.15,2013-03-04 13:05:00,
2013-03-04 08:10:00,29.5,18.4,30.25,WNW,285,3.0,3.0,63,0.00,,,0.00,Wunderground v.1.15,2013-03-04 13:10:00,
2013-03-04 08:20:00,30.1,19.0,30.25,WNW,287,3.0,4.0,63,0.00,,,0.00,Wunderground v.1.15,2013-03-04 13:20:00,
2013-03-04 08:25:00,30.5,17.9,30.25,West,273,4.0,4.0,59,0.00,,,0.00,Wunderground v.1.15,2013-03-04 13:25:00,
2013-03-04 08:35:00,31.1,17.6,30.25,WNW,282,4.0,4.0,57,0.00,,,0.00,Wunderground v.1.15,2013-03-04 13:35:00,
2013-03-04 08:40:00,31.2,18.1,30.25,NW,304,5.0,5.0,58,0.00,,,0.00,Wunderground v.1.15,2013-03-04 13:40:00,
2013-03-04 08:50:00,31.7,17.8,30.25,NNW,342,4.0,4.0,56,0.00,,,0.00,Wunderground v.1.15,2013-03-04 13:50:00,
2013-03-04 08:55:00,32.0,18.5,30.25,NW,304,4.0,4.0,57,0.00,,,0.00,Wunderground v.1.15,2013-03-04 13:55:00,
2013-03-04 09:00:00,32.4,18.8,30.25,WNW,297,3.0,6.0,57,0.00,,,0.00,Wunderground v.1.15,2013-03-04 14:00:00,
2013-03-04 09:10:00,32.8,16.6,30.25,NNW,330,5.0,7.0,51,0.00,,,0.00,Wunderground v.1.15,2013-03-04 14:10:00,
2013-03-04 09:20:00,33.7,16.5,30.25,WNW,283,4.0,4.0,49,0.00,,,0.00,Wunderground v.1.15,2013-03-04 14:20:00,
2013-03-04 09:25:00,34.0,16.3,30.25,NW,307,5.0,7.0,48,0.00,,,0.00,Wunderground v.1.15,2013-03-04 14:25:00,
2013-03-04 09:35:00,34.1,15.9,30.25,NW,305,7.0,8.0,47,0.00,,,0.00,Wunderground v.1.15,2013-03-04 14:35:00,
2013-03-04 09:45:00,34.7,15.5,30.25,North,354,7.0,7.0,45,0.00,,,0.00,Wunderground v.1.15,2013-03-04 14:45:00,
2013-03-04 09:50:00,35.2,17.4,30.25,West,270,6.0,6.0,48,0.00,,,0.00,Wunderground v.1.15,2013-03-04 14:50:00,
2013-03-04 10:00:00,35.7,15.4,30.25,NW,313,5.0,5.0,43,0.00,,,0.00,Wunderground v.1.15,2013-03-04 15:00:00,
2013-03-04 10:05:00,35.6,15.8,30.25,WNW,300,6.0,6.0,44,0.00,,,0.00,Wunderground v.1.15,2013-03-04 15:05:00,
2013-03-04 10:15:00,36.4,15.5,30.25,WNW,295,5.0,9.0,42,0.00,,,0.00,Wunderground v.1.15,2013-03-04 15:15:00,
2013-03-04 10:20:00,36.3,15.4,30.25,SW,226,5.0,5.0,42,0.00,,,0.00,Wunderground v.1.15,2013-03-04 15:20:00,
2013-03-04 10:30:00,37.0,16.5,30.25,NW,314,5.0,5.0,43,0.00,,,0.00,Wunderground v.1.15,2013-03-04 15:30:00,
2013-03-04 10:35:00,37.5,15.3,30.25,NW,323,4.0,5.0,40,0.00,,,0.00,Wunderground v.1.15,2013-03-04 15:35:00,
2013-03-04 10:40:00,37.5,15.3,30.25,WNW,290,5.0,8.0,40,0.00,,,0.00,Wunderground v.1.15,2013-03-04 15:40:00,
2013-03-04 10:45:00,37.7,16.1,30.25,WNW,297,6.0,8.0,41,0.00,,,0.00,Wunderground v.1.15,2013-03-04 15:45:00,
2013-03-04 10:55:00,38.1,17.0,30.25,NNE,29,8.0,8.0,42,0.00,,,0.00,Wunderground v.1.15,2013-03-04 15:55:00,
2013-03-04 11:05:00,38.8,15.3,30.24,WNW,300,5.0,14.0,38,0.00,,,0.00,Wunderground v.1.15,2013-03-04 16:05:00,
2013-03-04 11:15:00,39.5,14.7,30.24,NW,304,4.0,4.0,36,0.00,,,0.00,Wunderground v.1.15,2013-03-04 16:15:00,
2013-03-04 11:20:00,39.9,15.1,30.24,WNW,298,4.0,4.0,36,0.00,,,0.00,Wunderground v.1.15,2013-03-04 16:20:00,
2013-03-04 11:30:00,40.6,15.0,30.23,NW,315,3.0,3.0,35,0.00,,,0.00,Wunderground v.1.15,2013-03-04 16:30:00,
2013-03-04 11:35:00,40.7,14.5,30.23,West,270,4.0,4.0,34,0.00,,,0.00,Wunderground v.1.15,2013-03-04 16:35:00,
2013-03-04 11:45:00,40.9,15.3,30.23,WNW,288,4.0,5.0,35,0.00,,,0.00,Wunderground v.1.15,2013-03-04 16:45:00,
2013-03-04 11:50:00,41.1,15.5,30.23,WNW,300,5.0,7.0,35,0.00,,,0.00,Wunderground v.1.15,2013-03-04 16:50:00,
2013-03-04 12:00:00,41.5,15.8,30.22,NW,307,5.0,5.0,35,0.00,,,0.00,Wunderground v.1.15,2013-03-04 17:00:00,
2013-03-04 12:05:00,41.5,18.4,30.22,NW,319,6.0,6.0,39,0.00,,,0.00,Wunderground v.1.15,2013-03-04 17:05:00,
2013-03-04 12:10:00,41.7,16.0,30.22,NW,307,5.0,14.0,35,0.00,,,0.00,Wunderground v.1.15,2013-03-04 17:10:00,
2013-03-04 12:20:00,42.0,16.9,30.22,WNW,293,5.0,6.0,36,0.00,,,0.00,Wunderground v.1.15,2013-03-04 17:20:00,
2013-03-04 12:30:00,43.0,18.5,30.22,WNW,295,5.0,5.0,37,0.00,,,0.00,Wunderground v.1.15,2013-03-04 17:30:00,
2013-03-04 12:40:00,43.0,15.8,30.21,WNW,293,4.0,4.0,33,0.00,,,0.00,Wunderground v.1.15,2013-03-04 17:40:00,
2013-03-04 12:45:00,42.9,17.7,30.21,WNW,290,5.0,6.0,36,0.00,,,0.00,Wunderground v.1.15,2013-03-04 17:45:00,
2013-03-04 12:55:00,43.9,16.6,30.21,West,281,4.0,7.0,33,0.00,,,0.00,Wunderground v.1.15,2013-03-04 17:55:00,
2013-03-04 13:00:00,44.1,17.5,30.21,NW,319,5.0,6.0,34,0.00,,,0.00,Wunderground v.1.15,2013-03-04 18:00:00,
2013-03-04 13:10:00,43.9,15.9,30.20,NW,319,6.0,13.0,32,0.00,,,0.00,Wunderground v.1.15,2013-03-04 18:10:00,
2013-03-04 13:15:00,44.5,17.1,30.20,WNW,282,5.0,13.0,33,0.00,,,0.00,Wunderground v.1.15,2013-03-04 18:15:00,
2013-03-04 13:25:00,44.6,16.5,30.19,NW,311,4.0,5.0,32,0.00,,,0.00,Wunderground v.1.15,2013-03-04 18:25:00,
2013-03-04 13:30:00,45.1,14.7,30.19,NW,314,4.0,5.0,29,0.00,,,0.00,Wunderground v.1.15,2013-03-04 18:30:00,
2013-03-04 13:35:00,45.0,18.3,30.19,WNW,298,5.0,5.0,34,0.00,,,0.00,Wunderground v.1.15,2013-03-04 18:35:00,
2013-03-04 13:45:00,45.3,17.1,30.18,WNW,295,6.0,8.0,32,0.00,,,0.00,Wunderground v.1.15,2013-03-04 18:45:00,
2013-03-04 13:50:00,45.7,15.2,30.18,NW,326,7.0,7.0,29,0.00,,,0.00,Wunderground v.1.15,2013-03-04 18:50:00,
2013-03-04 14:00:00,46.0,16.3,30.18,WNW,297,6.0,6.0,30,0.00,,,0.00,Wunderground v.1.15,2013-03-04 19:00:00,
2013-03-04 14:10:00,46.6,16.0,30.18,NE,40,5.0,5.0,29,0.00,,,0.00,Wunderground v.1.15,2013-03-04 19:10:00,
2013-03-04 14:20:00,47.2,15.7,30.17,WNW,297,4.0,4.0,28,0.00,,,0.00,Wunderground v.1.15,2013-03-04 19:20:00,
2013-03-04 14:25:00,47.3,15.0,30.17,NW,313,5.0,5.0,27,0.00,,,0.00,Wunderground v.1.15,2013-03-04 19:25:00,
2013-03-04 14:35:00,48.2,16.6,30.17,WNW,299,3.0,7.0,28,0.00,,,0.00,Wunderground v.1.15,2013-03-04 19:35:00,
2013-03-04 14:40:00,48.0,14.7,30.16,WNW,290,4.0,4.0,26,0.00,,,0.00,Wunderground v.1.15,2013-03-04 19:40:00,
2013-03-04 14:50:00,48.7,17.0,30.16,WNW,293,4.0,4.0,28,0.00,,,0.00,Wunderground v.1.15,2013-03-04 19:50:00,
2013-03-04 14:55:00,48.5,14.2,30.16,WNW,286,5.0,6.0,25,0.00,,,0.00,Wunderground v.1.15,2013-03-04 19:55:00,
2013-03-04 15:05:00,48.6,16.1,30.16,WNW,293,4.0,17.0,27,0.00,,,0.00,Wunderground v.1.15,2013-03-04 20:05:00,
2013-03-04 15:10:00,48.9,17.2,30.16,WNW,294,3.0,17.0,28,0.00,,,0.00,Wunderground v.1.15,2013-03-04 20:10:00,
2013-03-04 15:20:00,49.3,18.3,30.16,WNW,290,6.0,6.0,29,0.00,,,0.00,Wunderground v.1.15,2013-03-04 20:20:00,
2013-03-04 15:30:00,49.4,15.0,30.16,WNW,298,3.0,3.0,25,0.00,,,0.00,Wunderground v.1.15,2013-03-04 20:30:00,
2013-03-04 15:40:00,49.8,16.2,30.16,WNW,286,4.0,4.0,26,0.00,,,0.00,Wunderground v.1.15,2013-03-04 20:40:00,
2013-03-04 15:45:00,50.1,15.6,30.16,NW,304,4.0,8.0,25,0.00,,,0.00,Wunderground v.1.15,2013-03-04 20:45:00,
2013-03-04 15:55:00,50.2,14.7,30.16,NW,321,5.0,5.0,24,0.00,,,0.00,Wunderground v.1.15,2013-03-04 20:55:00,
2013-03-04 16:05:00,50.3,17.5,30.16,WNW,297,4.0,11.0,27,0.00,,,0.00,Wunderground v.1.15,2013-03-04 21:05:00,
2013-03-04 16:10:00,50.2,15.7,30.16,NW,317,5.0,5.0,25,0.00,,,0.00,Wunderground v.1.15,2013-03-04 21:10:00,
2013-03-04 16:20:00,50.8,16.2,30.16,WNW,286,3.0,5.0,25,0.00,,,0.00,Wunderground v.1.15,2013-03-04 21:20:00,
2013-03-04 16:30:00,50.6,16.0,30.16,West,277,4.0,5.0,25,0.00,,,0.00,Wunderground v.1.15,2013-03-04 21:30:00,
2013-03-04 16:40:00,50.8,18.0,30.16,WNW,291,4.0,4.0,27,0.00,,,0.00,Wunderground v.1.15,2013-03-04 21:40:00,
2013-03-04 16:50:00,50.8,17.1,30.16,West,277,3.0,3.0,26,0.00,,,0.00,Wunderground v.1.15,2013-03-04 21:50:00,
2013-03-04 17:00:00,50.7,16.1,30.16,NW,322,3.0,4.0,25,0.00,,,0.00,Wunderground v.1.15,2013-03-04 22:00:00,
2013-03-04 17:05:00,50.8,17.1,30.16,West,264,3.0,11.0,26,0.00,,,0.00,Wunderground v.1.15,2013-03-04 22:05:00,
2013-03-04 17:15:00,50.9,16.3,30.17,NW,319,2.0,2.0,25,0.00,,,0.00,Wunderground v.1.15,2013-03-04 22:15:00,
2013-03-04 17:20:00,50.9,15.3,30.16,WNW,295,2.0,2.0,24,0.00,,,0.00,Wunderground v.1.15,2013-03-04 22:20:00,
2013-03-04 17:25:00,50.7,17.9,30.17,West,278,2.0,2.0,27,0.00,,,0.00,Wunderground v.1.15,2013-03-04 22:25:00,
2013-03-04 17:30:00,50.5,15.9,30.17,NNW,341,3.0,3.0,25,0.00,,,0.00,Wunderground v.1.15,2013-03-04 22:30:00,
2013-03-04 17:35:00,50.0,18.1,30.17,WNW,289,3.0,3.0,28,0.00,,,0.00,Wunderground v.1.15,2013-03-04 22:35:00,
2013-03-04 17:45:00,48.9,16.3,30.17,NW,311,2.0,4.0,27,0.00,,,0.00,Wunderground v.1.15,2013-03-04 22:45:00,
2013-03-04 17:50:00,48.0,18.0,30.17,West,280,2.0,2.0,30,0.00,,,0.00,Wunderground v.1.15,2013-03-04 22:50:00,
2013-03-04 17:55:00,47.1,20.8,30.17,West,260,1.0,2.0,35,0.00,,,0.00,Wunderground v.1.15,2013-03-04 22:55:00,
2013-03-04 18:05:00,44.6,22.3,30.17,WNW,293,0.0,7.0,41,0.00,,,0.00,Wunderground v.1.15,2013-03-04 23:05:00,
2013-03-04 18:15:00,42.6,21.1,30.18,WNW,293,0.0,7.0,42,0.00,,,0.00,Wunderground v.1.15,2013-03-04 23:15:00,
2013-03-04 18:25:00,40.2,22.5,30.18,WNW,293,0.0,0.0,49,0.00,,,0.00,Wunderground v.1.15,2013-03-04 23:25:00,
2013-03-04 18:35:00,38.4,21.8,30.18,WNW,293,0.0,0.0,51,0.00,,,0.00,Wunderground v.1.15,2013-03-04 23:35:00,
2013-03-04 18:40:00,37.6,21.5,30.18,WNW,293,0.0,0.0,52,0.00,,,0.00,Wunderground v.1.15,2013-03-04 23:40:00,
2013-03-04 18:45:00,36.9,21.8,30.18,WNW,293,0.0,0.0,54,0.00,,,0.00,Wunderground v.1.15,2013-03-04 23:45:00,
2013-03-04 18:55:00,35.8,21.6,30.18,WNW,292,0.0,1.0,56,0.00,,,0.00,Wunderground v.1.15,2013-03-04 23:55:00,
2013-03-04 19:00:00,35.3,20.7,30.18,WNW,293,0.0,0.0,55,0.00,,,0.00,Wunderground v.1.15,2013-03-05 00:00:00,
2013-03-04 19:10:00,34.5,20.8,30.18,WNW,293,0.0,6.0,57,0.00,,,0.00,Wunderground v.1.15,2013-03-05 00:10:00,
2013-03-04 19:20:00,34.4,21.5,30.18,WNW,292,0.0,1.0,59,0.00,,,0.00,Wunderground v.1.15,2013-03-05 00:20:00,
2013-03-04 19:30:00,34.1,22.0,30.19,WNW,301,1.0,1.0,61,0.00,,,0.00,Wunderground v.1.15,2013-03-05 00:30:00,
2013-03-04 19:35:00,33.9,21.9,30.19,WNW,286,1.0,1.0,61,0.00,,,0.00,Wunderground v.1.15,2013-03-05 00:35:00,
2013-03-04 19:45:00,32.7,21.9,30.20,WNW,286,0.0,1.0,64,0.00,,,0.00,Wunderground v.1.15,2013-03-05 00:45:00,
2013-03-04 19:50:00,32.3,21.1,30.20,WNW,288,0.0,0.0,63,0.00,,,0.00,Wunderground v.1.15,2013-03-05 00:50:00,
2013-03-04 19:55:00,32.1,21.3,30.20,WNW,288,0.0,0.0,64,0.00,,,0.00,Wunderground v.1.15,2013-03-05 00:55:00,
2013-03-04 20:05:00,31.8,21.0,30.20,WNW,293,1.0,1.0,64,0.00,,,0.00,Wunderground v.1.15,2013-03-05 01:05:00,
2013-03-04 20:15:00,31.6,21.2,30.20,NW,311,0.0,1.0,65,0.00,,,0.00,Wunderground v.1.15,2013-03-05 01:15:00,
2013-03-04 20:25:00,31.1,20.0,30.20,WNW,295,1.0,1.0,63,0.00,,,0.00,Wunderground v.1.15,2013-03-05 01:25:00,
2013-03-04 20:35:00,30.8,20.8,30.19,WNW,293,0.0,1.0,66,0.00,,,0.00,Wunderground v.1.15,2013-03-05 01:35:00,
2013-03-04 20:45:00,30.4,20.4,30.20,WNW,294,0.0,1.0,66,0.00,,,0.00,Wunderground v.1.15,2013-03-05 01:45:00,
2013-03-04 20:55:00,30.1,20.5,30.20,WNW,293,0.0,1.0,67,0.00,,,0.00,Wunderground v.1.15,2013-03-05 01:55:00,
2013-03-04 21:05:00,29.8,20.5,30.20,WNW,292,0.0,2.0,68,0.00,,,0.00,Wunderground v.1.15,2013-03-05 02:05:00,
2013-03-04 21:15:00,29.5,21.3,30.20,West,278,0.0,2.0,71,0.00,,,0.00,Wunderground v.1.15,2013-03-05 02:15:00,
2013-03-04 21:20:00,29.5,21.3,30.20,West,278,0.0,0.0,71,0.00,,,0.00,Wunderground v.1.15,2013-03-05 02:20:00,
2013-03-04 21:30:00,29.6,20.7,30.20,WNW,284,0.0,0.0,69,0.00,,,0.00,Wunderground v.1.15,2013-03-05 02:30:00,
2013-03-04 21:40:00,29.4,20.8,30.20,WNW,284,0.0,0.0,70,0.00,,,0.00,Wunderground v.1.15,2013-03-05 02:40:00,
2013-03-04 21:50:00,29.4,21.5,30.20,WNW,284,0.0,0.0,72,0.00,,,0.00,Wunderground v.1.15,2013-03-05 02:50:00,
2013-03-04 22:00:00,29.8,21.9,30.21,WNW,293,0.0,0.0,72,0.00,,,0.00,Wunderground v.1.15,2013-03-05 03:00:00,
2013-03-04 22:05:00,30.0,21.4,30.21,WNW,287,0.0,2.0,70,0.00,,,0.00,Wunderground v.1.15,2013-03-05 03:05:00,
2013-03-04 22:15:00,30.3,21.7,30.21,WNW,287,0.0,2.0,70,0.00,,,0.00,Wunderground v.1.15,2013-03-05 03:15:00,
2013-03-04 22:20:00,30.7,23.1,30.21,WNW,296,0.0,0.0,73,0.00,,,0.00,Wunderground v.1.15,2013-03-05 03:20:00,
2013-03-04 22:30:00,31.4,23.1,30.21,WNW,285,0.0,0.0,71,0.00,,,0.00,Wunderground v.1.15,2013-03-05 03:30:00,
2013-03-04 22:35:00,31.8,22.4,30.21,WNW,285,0.0,0.0,68,0.00,,,0.00,Wunderground v.1.15,2013-03-05 03:35:00,
2013-03-04 22:45:00,32.7,24.3,30.20,WNW,285,0.0,0.0,71,0.00,,,0.00,Wunderground v.1.15,2013-03-05 03:45:00,
2013-03-04 22:55:00,33.2,23.4,30.21,WNW,285,0.0,0.0,67,0.00,,,0.00,Wunderground v.1.15,2013-03-05 03:55:00,
2013-03-04 23:05:00,33.5,24.1,30.20,WNW,285,0.0,2.0,68,0.00,,,0.00,Wunderground v.1.15,2013-03-05 04:05:00,
2013-03-04 23:15:00,33.3,22.4,30.20,WNW,285,0.0,2.0,64,0.00,,,0.00,Wunderground v.1.15,2013-03-05 04:15:00,
2013-03-04 23:25:00,33.4,23.3,30.20,WNW,285,0.0,1.0,66,0.00,,,0.00,Wunderground v.1.15,2013-03-05 04:25:00,
2013-03-04 23:30:00,33.8,24.7,30.20,WNW,285,0.0,0.0,69,0.00,,,0.00,Wunderground v.1.15,2013-03-05 04:30:00,
2013-03-04 23:40:00,33.9,23.4,30.20,WNW,285,0.0,0.0,65,0.00,,,0.00,Wunderground v.1.15,2013-03-05 04:40:00,
2013-03-04 23:50:00,34.3,24.5,30.20,WNW,285,0.0,0.0,67,0.00,,,0.00,Wunderground v.1.15,2013-03-05 04:50:00,